Location: Hughenden
(52.5123°N, 110.9645°W)
Time: 16:44:29
(UTC+00:00)

Envisat - Visible Passes

Search period start: 05 June 2023 00:00
Search period end: 15 June 2023 00:00
Orbit: 763 x 765 km, 98.2° (Epoch: 05 June)

Date Brightness Start Highest point End Pass type
(mag) Time Alt. Az. Time Alt. Az. Time Alt. Az.
05 Jun 6.0 09:37:46 10° ENE 09:38:01 10° E 09:38:16 10° E visible
07 Jun 5.5 09:59:57 10° NE 10:03:09 17° E 10:06:20 10° SE visible
10 Jun 5.6 09:48:09 10° NE 09:50:31 13° E 09:52:53 10° ESE visible
12 Jun 5.3 10:11:48 10° NE 10:15:36 21° E 10:19:22 10° SE visible
13 Jun 5.9 09:37:15 10° ENE 09:37:52 10° E 09:38:30 10° E visible
